Weather History for Tupelo, MS

Change the Weather History Date:

Wednesday, February 19, 2014

  Actual Average Record
Temperature  
Mean Temperature 63 °F 47 °F  
Max Temperature 69 °F 58 °F 77 °F (1956)
Min Temperature 57 °F 36 °F 10 °F (1958)
Degree Days  
Heating Degree Days 2 18  
Month to date heating degree days 456 385  
Since 1 July heating degree days 2663 2281  
Cooling Degree Days 0 0  
Month to date cooling degree days 0 0  
Year to date cooling degree days 0 1  
Growing Degree Days 13 (Base 50)    
Moisture  
Dew Point 57 °F    
Average Humidity 80    
Maximum Humidity 93    
Minimum Humidity 66    
Precipitation  
Precipitation 0.00 in 0.19 in 3.14 in (1991)
Month to date precipitation 3.50 3.23  
Year to date precipitation 5.27 7.71  
Snow  
Snow 0.00 in 0.10 in T in (2006)
Month to date snowfall 0.5 0.5  
Since 1 July snowfall 0.5 1.7  
Snow Depth 0.00 in    
Sea Level Pressure  
Sea Level Pressure 29.98 in    
Wind  
Wind Speed 6 mph (SW)    
Max Wind Speed 12 mph    
Max Gust Speed 16 mph    
Visibility 10 miles    
Events      
T = Trace of Precipitation, MM = Missing Value Source: NWS Daily Summary

Daily Weather History Graph

Daily Weather History Graph

Search for Another Location

Airport:

Trip Planner

Search our weather history database for the weather conditions in past years. The results will help you decide how hot, cold, wet, or windy it might be!

Date:

Astronomy

Feb. 19, 2014 Rise Set
Actual Time 6:35 AM CST 5:42 PM CST
Civil Twilight 6:10 AM CST 6:08 PM CST
Nautical Twilight 5:41 AM CST 6:37 PM CST
Astronomical Twilight 5:11 AM CST 7:06 PM CST
Moon 10:20 PM CST (2/19) 8:55 AM CST (2/19)
Length of Visible Light 11h 57m
Length of Day
11h 06m
Waning Gibbous, 79% of the Moon is Illuminated
Feb 19
Waning Gibbous
Feb 22
Last Quarter
Mar 1
New
Mar 8
First Quarter
Mar 16
Full

Hourly Weather History & Observations

Time (CST) Temp. Dew Point Humidity Pressure Visibility Wind Dir Wind Speed Gust Speed Precip Events Conditions
12:53 AM 60.1 °F 57.0 °F 90% 29.98 in 7.0 mi SSW 5.8 mph - N/A   Overcast
1:53 AM 59.0 °F 57.0 °F 93% 29.97 in 8.0 mi SSW 8.1 mph - N/A   Mostly Cloudy
2:53 AM 57.9 °F 55.9 °F 93% 29.96 in 9.0 mi SSW 8.1 mph - N/A   Partly Cloudy
3:53 AM 57.9 °F 55.9 °F 93% 29.97 in 10.0 mi SW 6.9 mph - N/A   Mostly Cloudy
4:53 AM 60.1 °F 55.9 °F 86% 29.99 in 10.0 mi West 4.6 mph - N/A   Mostly Cloudy
5:53 AM 57.9 °F 55.0 °F 90% 29.99 in 10.0 mi SW 5.8 mph - N/A   Mostly Cloudy
6:14 AM 60.8 °F 55.4 °F 82% 30.01 in 10.0 mi WSW 3.5 mph - N/A   Mostly Cloudy
6:53 AM 60.1 °F 55.9 °F 86% 30.01 in 10.0 mi WSW 4.6 mph - N/A   Mostly Cloudy
7:07 AM 60.8 °F 55.4 °F 82% 30.02 in 10.0 mi WSW 4.6 mph - N/A   Mostly Cloudy
7:53 AM 62.1 °F 57.0 °F 84% 30.01 in 10.0 mi WSW 6.9 mph - N/A   Partly Cloudy
8:45 AM 64.4 °F 57.2 °F 77% 30.04 in 10.0 mi West 9.2 mph - 0.01 in   Mostly Cloudy
8:53 AM 64.0 °F 57.9 °F 80% 30.04 in 10.0 mi West 11.5 mph - 0.01 in   Mostly Cloudy
9:43 AM 66.2 °F 59.0 °F 78% 30.05 in 10.0 mi WSW 6.9 mph - N/A   Overcast
9:53 AM 66.0 °F 59.0 °F 78% 30.05 in 10.0 mi West 11.5 mph - N/A   Overcast
10:36 AM 66.2 °F 59.0 °F 78% 30.05 in 10.0 mi West 8.1 mph - N/A   Overcast
10:53 AM 66.9 °F 59.0 °F 76% 30.04 in 10.0 mi West 6.9 mph - N/A   Overcast
11:53 AM 66.9 °F 59.0 °F 76% 30.01 in 10.0 mi West 6.9 mph - N/A   Overcast
12:53 PM 66.9 °F 59.0 °F 76% 29.99 in 10.0 mi SW 10.4 mph - N/A   Overcast
1:53 PM 69.1 °F 57.9 °F 68% 29.97 in 10.0 mi WSW 5.8 mph - N/A   Overcast
2:53 PM 66.9 °F 57.9 °F 73% 29.96 in 10.0 mi SW 5.8 mph - N/A   Overcast
3:45 PM 68.0 °F 57.2 °F 68% 29.97 in 10.0 mi SW 5.8 mph - N/A   Overcast
3:53 PM 68.0 °F 57.9 °F 70% 29.97 in 10.0 mi SW 4.6 mph - N/A   Overcast
4:53 PM 66.0 °F 57.9 °F 75% 29.96 in 10.0 mi Calm Calm - N/A   Overcast
5:23 PM 66.2 °F 57.2 °F 73% 29.96 in 10.0 mi South 3.5 mph - N/A   Overcast
5:48 PM 64.4 °F 57.2 °F 77% 29.97 in 10.0 mi Calm Calm - N/A   Overcast
5:53 PM 64.9 °F 57.9 °F 78% 29.96 in 10.0 mi Calm Calm - N/A   Overcast
6:53 PM 64.0 °F 57.9 °F 80% 29.96 in 10.0 mi SSE 4.6 mph - N/A   Overcast
7:53 PM 63.0 °F 57.9 °F 84% 29.94 in 10.0 mi SSE 5.8 mph - N/A   Overcast
8:53 PM 62.1 °F 57.9 °F 86% 29.93 in 10.0 mi SSE 6.9 mph - N/A   Mostly Cloudy
9:53 PM 61.0 °F 57.9 °F 90% 29.91 in 9.0 mi South 5.8 mph - N/A   Partly Cloudy
10:53 PM 60.1 °F 57.0 °F 90% 29.91 in 8.0 mi South 3.5 mph - N/A   Clear
11:53 PM 61.0 °F 57.0 °F 87% 29.90 in 10.0 mi South 8.1 mph - N/A   Scattered Clouds